Terminal Aerodrome Forecast
Issued by NWS Wilmington, OH

Current Version | Previous Version | Text Only | Print | Product List | Glossary On
Versions: 1 2 3 4 5 6 7 8 9 10 11 12 13 14 15 16 17
000 FTUS41 KILN 041000 AAB TAFDAY TAF AMD KDAY 041003Z 0410/0506 00000KT P6SM SCT060 FM041300 35005KT P6SM FEW040 SCT120 FM041800 32006KT P6SM SCT050 FM050000 VRB03KT P6SM FEW040=

USA.gov is the U.S. government's official web portal to all federal, state and local government web resources and services.